QPF
0.00 0.00 0.00 0.00 0.00 0.00 0.00 0.00 0.00 0.00 0.00 0.00 0.00 0.00 0.00 0.00 0.00 0.00 0.00 0.01 0.01 0.03 0.04 0.04 0.05 0.09 0.15 0.17 0.18 0.24 0.30 0.32 0.26 0.22 0.18 0.15 0.11 0.10 0.13 0.14 0.11 0.08 0.05 0.03
0.00 0.00 0.00 0.00 0.00 0.00 0.00 0.00 0.00 0.00 0.00 0.00 0.00 0.00 0.00 0.00 0.00 0.00 0.00 0.01 0.01 0.01 0.03 0.03 0.04 0.07 0.10 0.13 0.15 0.15 0.21 0.32 0.31 0.23 0.22 0.23 0.24 0.21 0.18 0.19 0.16 0.11 0.06 0.04
0.00 0.00 0.00 0.00 0.00 0.00 0.00 0.00 0.00 0.00 0.00 0.00 0.00 0.00 0.00 0.00 0.00 0.00 0.01 0.01 0.01 0.02 0.02 0.02 0.04 0.07 0.07 0.09 0.13 0.12 0.13 0.22 0.27 0.28 0.32 0.33 0.34 0.33 0.25 0.19 0.15 0.10 0.06 0.05
0.00 0.00 0.00 0.00 0.00 0.00 0.00 0.00 0.00 0.00 0.00 0.00 0.00 0.00 0.00 0.00 0.00 0.01 0.01 0.01 0.01 0.01 0.01 0.02 0.04 0.07 0.06 0.06 0.14 0.18 0.14 0.17 0.18 0.19 0.20 0.21 0.19 0.17 0.15 0.13 0.11 0.09 0.07 0.05
0.00 0.00 0.00 0.00 0.00 0.00 0.00 0.00 0.00 0.00 0.00 0.00 0.00 0.00 0.00 0.00 0.00 0.00 0.00 0.01 0.01 0.01 0.02 0.03 0.04 0.06 0.06 0.07 0.11 0.16 0.14 0.14 0.13 0.14 0.16 0.13 0.09 0.10 0.11 0.10 0.12 0.12 0.10 0.08
0.00 0.00 0.00 0.00 0.00 0.00 0.00 0.00 0.00 0.00 0.00 0.00 0.00 0.00 0.00 0.00 0.00 0.00 0.00 0.00 0.00 0.01 0.02 0.03 0.03 0.04 0.06 0.08 0.07 0.09 0.11 0.12 0.13 0.15 0.16 0.12 0.08 0.09 0.10 0.08 0.09 0.09 0.08 0.07
0.00 0.00 0.00 0.00 0.00 0.00 0.00 0.00 0.00 0.00 0.00 0.00 0.00 0.00 0.00 0.00 0.00 0.00 0.00 0.00 0.00 0.01 0.02 0.03 0.02 0.02 0.03 0.05 0.05 0.06 0.08 0.10 0.10 0.11 0.14 0.13 0.09 0.07 0.07 0.08 0.09 0.08 0.05 0.04
0.00 0.00 0.00 0.00 0.00 0.00 0.00 0.00 0.00 0.00 0.00 0.00 0.00 0.00 0.00 0.00 0.00 0.00 0.00 0.00 0.01 0.02 0.02 0.01 0.01 0.02 0.02 0.03 0.04 0.05 0.06 0.06 0.06 0.08 0.13 0.15 0.10 0.08 0.06 0.08 0.09 0.07 0.05 0.05
0.00 0.00 0.00 0.00 0.00 0.00 0.00 0.00 0.00 0.00 0.00 0.00 0.00 0.00 0.00 0.00 0.00 0.00 0.00 0.00 0.01 0.01 0.01 0.02 0.01 0.02 0.02 0.03 0.04 0.04 0.04 0.04 0.05 0.07 0.10 0.13 0.11 0.08 0.08 0.10 0.10 0.09 0.08 0.07
0.00 0.00 0.00 0.00 0.00 0.00 0.00 0.00 0.00 0.00 0.00 0.00 0.00 0.00 0.00 0.00 0.00 0.00 0.00 0.01 0.00 0.01 0.01 0.02 0.02 0.02 0.02 0.03 0.04 0.05 0.05 0.05 0.05 0.07 0.10 0.11 0.12 0.10 0.12 0.15 0.12 0.09 0.10 0.09
0.00 0.00 0.00 0.00 0.00 0.00 0.00 0.00 0.00 0.00 0.00 0.00 0.00 0.00 0.00 0.00 0.00 0.00 0.00 0.01 0.01 0.01 0.02 0.02 0.02 0.02 0.02 0.02 0.03 0.05 0.06 0.05 0.05 0.06 0.09 0.11 0.12 0.15 0.14 0.13 0.14 0.10 0.10 0.10
0.00 0.00 0.00 0.00 0.00 0.00 0.00 0.00 0.00 0.00 0.00 0.00 0.00 0.00 0.00 0.00 0.00 0.00 0.01 0.01 0.01 0.01 0.01 0.01 0.01 0.02 0.02 0.01 0.02 0.03 0.04 0.05 0.06 0.09 0.11 0.12 0.11 0.13 0.13 0.11 0.11 0.10 0.09 0.09
0.00 0.00 0.00 0.00 0.00 0.00 0.00 0.00 0.00 0.00 0.00 0.00 0.00 0.00 0.00 0.00 0.00 0.00 0.01 0.01 0.01 0.01 0.01 0.01 0.01 0.01 0.01 0.01 0.01 0.02 0.03 0.05 0.08 0.09 0.12 0.14 0.10 0.09 0.08 0.10 0.10 0.09 0.11 0.11
0.00 0.00 0.00 0.00 0.00 0.00 0.00 0.00 0.00 0.00 0.00 0.00 0.00 0.00 0.00 0.00 0.00 0.00 0.00 0.00 0.01 0.01 0.01 0.01 0.01 0.01 0.01 0.01 0.01 0.02 0.03 0.04 0.08 0.11 0.11 0.14 0.11 0.08 0.08 0.11 0.12 0.10 0.10 0.11
0.00 0.00 0.00 0.00 0.00 0.00 0.00 0.00 0.00 0.00 0.00 0.00 0.00 0.00 0.00 0.00 0.00 0.01 0.01 0.01 0.02 0.01 0.01 0.01 0.01 0.01 0.02 0.01 0.01 0.01 0.03 0.05 0.05 0.09 0.10 0.12 0.12 0.10 0.09 0.10 0.11 0.11 0.10 0.10
0.00 0.00 0.00 0.00 0.00 0.00 0.00 0.00 0.00 0.00 0.00 0.00 0.00 0.00 0.00 0.00 0.00 0.01 0.01 0.02 0.01 0.02 0.02 0.01 0.02 0.03 0.03 0.02 0.02 0.01 0.02 0.04 0.04 0.05 0.05 0.06 0.08 0.07 0.08 0.07 0.08 0.09 0.09 0.10
0.00 0.00 0.00 0.00 0.00 0.00 0.00 0.00 0.00 0.00 0.00 0.00 0.00 0.00 0.00 0.00 0.01 0.01 0.01 0.01 0.02 0.02 0.02 0.02 0.03 0.04 0.03 0.03 0.04 0.03 0.02 0.02 0.03 0.03 0.03 0.04 0.05 0.06 0.06 0.07 0.07 0.08 0.09 0.10
0.00 0.00 0.00 0.00 0.00 0.00 0.00 0.00 0.00 0.00 0.00 0.00 0.00 0.00 0.00 0.01 0.01 0.02 0.02 0.02 0.02 0.02 0.02 0.03 0.04 0.05 0.04 0.04 0.04 0.05 0.05 0.05 0.06 0.05 0.06 0.07 0.06 0.06 0.06 0.07 0.07 0.07 0.09 0.10
0.00 0.00 0.00 0.00 0.00 0.00 0.00 0.00 0.00 0.00 0.01 0.01 0.01 0.01 0.01 0.01 0.03 0.03 0.04 0.03 0.03 0.03 0.03 0.05 0.07 0.06 0.06 0.06 0.06 0.07 0.08 0.10 0.10 0.09 0.09 0.10 0.10 0.10 0.10 0.12 0.12 0.11 0.10 0.07
0.00 0.00 0.00 0.00 0.00 0.00 0.00 0.00 0.00 0.00 0.01 0.01 0.01 0.01 0.02 0.02 0.03 0.03 0.03 0.04 0.04 0.04 0.04 0.06 0.08 0.08 0.07 0.08 0.10 0.11 0.12 0.12 0.13 0.12 0.10 0.12 0.15 0.18 0.19 0.19 0.18 0.16 0.13 0.09
0.00 0.00 0.00 0.00 0.00 0.00 0.00 0.01 0.01 0.01 0.01 0.01 0.01 0.01 0.01 0.01 0.02 0.02 0.02 0.02 0.03 0.04 0.04 0.05 0.08 0.10 0.11 0.14 0.17 0.20 0.18 0.14 0.14 0.13 0.12 0.13 0.17 0.19 0.20 0.20 0.19 0.19 0.18 0.15
0.00 0.00 0.00 0.00 0.00 0.00 0.00 0.01 0.01 0.00 0.00 0.01 0.01 0.01 0.01 0.01 0.01 0.01 0.01 0.02 0.03 0.04 0.05 0.06 0.07 0.09 0.11 0.14 0.18 0.21 0.22 0.21 0.20 0.20 0.18 0.18 0.20 0.21 0.19 0.17 0.16 0.16 0.16 0.15
0.00 0.00 0.01 0.01 0.01 0.01 0.01 0.01 0.01 0.01 0.02 0.01 0.01 0.01 0.01 0.01 0.01 0.01 0.01 0.02 0.04 0.05 0.05 0.06 0.08 0.10 0.11 0.15 0.19 0.23 0.24 0.24 0.23 0.25 0.25 0.24 0.25 0.27 0.26 0.24 0.20 0.17 0.15 0.14
0.01 0.01 0.01 0.02 0.03 0.02 0.02 0.02 0.03 0.04 0.04 0.04 0.03 0.03 0.03 0.02 0.02 0.02 0.02 0.03 0.05 0.05 0.04 0.06 0.06 0.07 0.09 0.12 0.15 0.19 0.21 0.21 0.23 0.24 0.24 0.22 0.22 0.21 0.20 0.18 0.16 0.14 0.13 0.13
0.01 0.01 0.01 0.02 0.03 0.03 0.02 0.02 0.02 0.03 0.03 0.03 0.03 0.02 0.03 0.02 0.02 0.01 0.02 0.02 0.03 0.03 0.04 0.05 0.05 0.05 0.07 0.10 0.11 0.14 0.16 0.17 0.20 0.21 0.21 0.19 0.16 0.13 0.12 0.14 0.15 0.15 0.15 0.14
0.01 0.01 0.01 0.02 0.02 0.02 0.02 0.01 0.01 0.01 0.02 0.01 0.01 0.01 0.01 0.01 0.01 0.01 0.02 0.02 0.03 0.03 0.05 0.07 0.08 0.08 0.08 0.08 0.09 0.10 0.11 0.11 0.12 0.14 0.14 0.15 0.15 0.14 0.12 0.12 0.13 0.14 0.13 0.13
MSLP
1010.88 1011.65 1012.21 1012.55 1012.71 1012.73 1012.66 1012.52 1012.33 1012.08 1011.74 1011.29 1010.73 1010.07 1009.34 1008.61 1007.94 1007.41 1007.08 1006.95 1007.03 1007.29 1007.68 1008.14 1008.63 1009.11 1009.59 1010.07 1010.58 1011.12 1011.71 1012.34 1012.98 1013.60 1014.14 1014.58 1014.89 1015.08 1015.18 1015.23 1015.29 1015.39 1015.59 1015.88
1011.16 1011.80 1012.22 1012.46 1012.56 1012.59 1012.59 1012.60 1012.59 1012.53 1012.36 1012.04 1011.54 1010.87 1010.08 1009.25 1008.46 1007.83 1007.40 1007.22 1007.26 1007.50 1007.87 1008.30 1008.74 1009.14 1009.52 1009.88 1010.28 1010.73 1011.27 1011.88 1012.54 1013.20 1013.81 1014.31 1014.67 1014.89 1014.99 1015.02 1015.05 1015.13 1015.30 1015.60
1011.18 1011.68 1011.97 1012.11 1012.18 1012.26 1012.39 1012.58 1012.78 1012.93 1012.95 1012.76 1012.33 1011.66 1010.82 1009.89 1008.99 1008.24 1007.72 1007.47 1007.47 1007.69 1008.03 1008.43 1008.81 1009.13 1009.40 1009.66 1009.93 1010.29 1010.76 1011.34 1012.01 1012.71 1013.38 1013.95 1014.38 1014.65 1014.78 1014.83 1014.86 1014.94 1015.11 1015.41
1010.99 1011.34 1011.51 1011.58 1011.66 1011.82 1012.10 1012.50 1012.94 1013.32 1013.53 1013.48 1013.12 1012.46 1011.55 1010.52 1009.51 1008.65 1008.03 1007.70 1007.66 1007.84 1008.16 1008.53 1008.86 1009.12 1009.30 1009.45 1009.62 1009.88 1010.27 1010.81 1011.46 1012.19 1012.90 1013.54 1014.04 1014.39 1014.58 1014.68 1014.74 1014.83 1015.02 1015.31
1010.66 1010.87 1010.93 1010.97 1011.08 1011.35 1011.81 1012.43 1013.10 1013.71 1014.11 1014.19 1013.90 1013.23 1012.27 1011.15 1010.02 1009.04 1008.32 1007.91 1007.82 1007.97 1008.27 1008.62 1008.93 1009.14 1009.27 1009.34 1009.42 1009.58 1009.89 1010.37 1010.99 1011.71 1012.45 1013.13 1013.70 1014.12 1014.39 1014.55 1014.66 1014.79 1014.99 1015.30
1010.28 1010.35 1010.34 1010.37 1010.54 1010.94 1011.58 1012.41 1013.30 1014.11 1014.67 1014.86 1014.62 1013.94 1012.93 1011.71 1010.48 1009.40 1008.58 1008.11 1007.96 1008.09 1008.39 1008.74 1009.04 1009.24 1009.33 1009.35 1009.36 1009.45 1009.68 1010.08 1010.64 1011.32 1012.06 1012.76 1013.37 1013.85 1014.19 1014.43 1014.60 1014.78 1015.01 1015.32
1009.92 1009.88 1009.82 1009.85 1010.10 1010.62 1011.42 1012.43 1013.50 1014.46 1015.15 1015.42 1015.20 1014.51 1013.45 1012.17 1010.85 1009.68 1008.80 1008.26 1008.09 1008.21 1008.51 1008.88 1009.20 1009.41 1009.50 1009.50 1009.47 1009.49 1009.64 1009.96 1010.44 1011.05 1011.74 1012.43 1013.06 1013.58 1013.98 1014.28 1014.52 1014.75 1015.01 1015.34
1009.60 1009.48 1009.39 1009.45 1009.77 1010.40 1011.32 1012.46 1013.65 1014.70 1015.45 1015.76 1015.55 1014.85 1013.76 1012.43 1011.07 1009.85 1008.93 1008.37 1008.18 1008.30 1008.63 1009.03 1009.38 1009.63 1009.75 1009.75 1009.70 1009.68 1009.75 1009.98 1010.36 1010.88 1011.50 1012.14 1012.75 1013.28 1013.72 1014.08 1014.38 1014.66 1014.97 1015.33
1009.32 1009.15 1009.06 1009.16 1009.54 1010.24 1011.24 1012.43 1013.66 1014.74 1015.50 1015.80 1015.58 1014.88 1013.78 1012.45 1011.09 1009.88 1008.96 1008.41 1008.23 1008.37 1008.72 1009.15 1009.56 1009.85 1010.00 1010.03 1009.98 1009.93 1009.95 1010.09 1010.37 1010.79 1011.31 1011.88 1012.44 1012.96 1013.42 1013.82 1014.17 1014.51 1014.87 1015.25
1009.05 1008.87 1008.80 1008.94 1009.36 1010.10 1011.11 1012.29 1013.48 1014.51 1015.22 1015.48 1015.25 1014.55 1013.49 1012.21 1010.90 1009.75 1008.88 1008.37 1008.23 1008.39 1008.77 1009.23 1009.67 1010.01 1010.20 1010.26 1010.23 1010.17 1010.15 1010.22 1010.42 1010.74 1011.16 1011.64 1012.14 1012.63 1013.09 1013.51 1013.90 1014.30 1014.70 1015.12
1008.75 1008.60 1008.58 1008.77 1009.22 1009.95 1010.91 1012.00 1013.09 1014.01 1014.61 1014.81 1014.55 1013.88 1012.88 1011.70 1010.52 1009.48 1008.71 1008.27 1008.18 1008.37 1008.76 1009.24 1009.70 1010.06 1010.29 1010.39 1010.39 1010.34 1010.31 1010.34 1010.47 1010.71 1011.03 1011.43 1011.87 1012.31 1012.76 1013.19 1013.62 1014.05 1014.50 1014.96
1008.42 1008.34 1008.39 1008.62 1009.08 1009.77 1010.63 1011.59 1012.51 1013.27 1013.74 1013.85 1013.58 1012.95 1012.06 1011.03 1010.01 1009.13 1008.49 1008.15 1008.11 1008.33 1008.72 1009.19 1009.64 1010.01 1010.26 1010.39 1010.43 1010.41 1010.39 1010.41 1010.51 1010.69 1010.95 1011.28 1011.65 1012.06 1012.48 1012.92 1013.36 1013.83 1014.31 1014.81
1008.10 1008.11 1008.24 1008.52 1008.98 1009.59 1010.33 1011.11 1011.83 1012.39 1012.71 1012.73 1012.45 1011.89 1011.13 1010.28 1009.46 1008.77 1008.29 1008.06 1008.08 1008.31 1008.68 1009.11 1009.53 1009.88 1010.14 1010.29 1010.36 1010.39 1010.40 1010.45 1010.54 1010.70 1010.92 1011.21 1011.54 1011.90 1012.30 1012.73 1013.18 1013.67 1014.17 1014.70
1007.84 1007.96 1008.18 1008.50 1008.94 1009.47 1010.05 1010.63 1011.13 1011.49 1011.65 1011.58 1011.30 1010.82 1010.21 1009.56 1008.96 1008.48 1008.17 1008.05 1008.13 1008.35 1008.68 1009.05 1009.41 1009.72 1009.96 1010.12 1010.23 1010.30 1010.37 1010.46 1010.58 1010.75 1010.97 1011.23 1011.53 1011.87 1012.25 1012.67 1013.12 1013.61 1014.13 1014.66
1007.72 1007.95 1008.25 1008.61 1009.02 1009.44 1009.86 1010.24 1010.52 1010.68 1010.69 1010.54 1010.26 1009.87 1009.42 1008.98 1008.60 1008.32 1008.18 1008.17 1008.28 1008.50 1008.77 1009.06 1009.34 1009.58 1009.78 1009.94 1010.07 1010.19 1010.32 1010.46 1010.64 1010.84 1011.07 1011.34 1011.63 1011.96 1012.33 1012.73 1013.18 1013.67 1014.18 1014.72
1007.81 1008.14 1008.50 1008.87 1009.22 1009.54 1009.81 1009.98 1010.06 1010.04 1009.91 1009.70 1009.43 1009.13 1008.83 1008.59 1008.41 1008.32 1008.33 1008.41 1008.56 1008.75 1008.96 1009.16 1009.34 1009.50 1009.64 1009.78 1009.91 1010.07 1010.25 1010.46 1010.68 1010.94 1011.20 1011.49 1011.80 1012.14 1012.50 1012.91 1013.36 1013.85 1014.36 1014.89
1008.13 1008.52 1008.90 1009.26 1009.56 1009.77 1009.89 1009.89 1009.79 1009.61 1009.37 1009.11 1008.86 1008.64 1008.48 1008.41 1008.41 1008.49 1008.62 1008.78 1008.95 1009.10 1009.23 1009.34 1009.41 1009.48 1009.55 1009.64 1009.77 1009.94 1010.15 1010.40 1010.69 1010.99 1011.30 1011.63 1011.98 1012.34 1012.73 1013.16 1013.63 1014.13 1014.65 1015.18
1008.66 1009.06 1009.44 1009.76 1009.98 1010.09 1010.07 1009.93 1009.69 1009.39 1009.07 1008.78 1008.55 1008.41 1008.37 1008.43 1008.58 1008.78 1009.01 1009.22 1009.40 1009.52 1009.57 1009.58 1009.54 1009.51 1009.49 1009.52 1009.61 1009.76 1009.99 1010.27 1010.59 1010.94 1011.30 1011.69 1012.09 1012.51 1012.96 1013.44 1013.96 1014.49 1015.05 1015.60
1009.32 1009.68 1010.01 1010.26 1010.41 1010.42 1010.29 1010.04 1009.71 1009.34 1008.98 1008.68 1008.48 1008.40 1008.45 1008.62 1008.88 1009.17 1009.46 1009.70 1009.87 1009.95 1009.93 1009.84 1009.70 1009.56 1009.44 1009.39 1009.41 1009.52 1009.73 1010.01 1010.35 1010.74 1011.16 1011.62 1012.09 1012.60 1013.14 1013.72 1014.32 1014.93 1015.55 1016.15
1009.99 1010.27 1010.52 1010.70 1010.75 1010.69 1010.49 1010.18 1009.80 1009.40 1009.03 1008.74 1008.58 1008.57 1008.69 1008.93 1009.26 1009.61 1009.93 1010.18 1010.33 1010.36 1010.27 1010.09 1009.85 1009.60 1009.38 1009.23 1009.17 1009.22 1009.38 1009.63 1009.98 1010.40 1010.88 1011.41 1011.99 1012.62 1013.28 1013.98 1014.71 1015.44 1016.15 1016.84
1010.54 1010.73 1010.89 1010.97 1010.96 1010.84 1010.60 1010.28 1009.90 1009.52 1009.18 1008.94 1008.83 1008.86 1009.04 1009.33 1009.69 1010.06 1010.40 1010.64 1010.76 1010.74 1010.59 1010.33 1010.00 1009.65 1009.33 1009.07 1008.92 1008.88 1008.98 1009.20 1009.54 1009.98 1010.52 1011.14 1011.83 1012.59 1013.40 1014.26 1015.14 1016.01 1016.86 1017.64
1010.90 1010.98 1011.04 1011.05 1010.99 1010.85 1010.62 1010.33 1010.00 1009.68 1009.41 1009.23 1009.18 1009.26 1009.48 1009.79 1010.16 1010.54 1010.86 1011.08 1011.17 1011.11 1010.91 1010.58 1010.18 1009.75 1009.33 1008.98 1008.73 1008.61 1008.64 1008.82 1009.14 1009.60 1010.19 1010.90 1011.71 1012.61 1013.58 1014.60 1015.64 1016.67 1017.65 1018.55
1011.02 1011.00 1010.98 1010.94 1010.86 1010.73 1010.55 1010.33 1010.09 1009.86 1009.69 1009.60 1009.61 1009.74 1009.98 1010.31 1010.67 1011.03 1011.33 1011.53 1011.59 1011.50 1011.27 1010.90 1010.45 1009.96 1009.47 1009.05 1008.72 1008.53 1008.50 1008.63 1008.94 1009.41 1010.05 1010.83 1011.75 1012.78 1013.89 1015.06 1016.25 1017.41 1018.52 1019.53
1010.91 1010.82 1010.74 1010.68 1010.62 1010.54 1010.44 1010.32 1010.20 1010.09 1010.02 1010.02 1010.11 1010.28 1010.54 1010.87 1011.22 1011.56 1011.84 1012.02 1012.06 1011.97 1011.72 1011.34 1010.88 1010.36 1009.84 1009.37 1009.00 1008.76 1008.68 1008.79 1009.08 1009.56 1010.23 1011.07 1012.06 1013.19 1014.41 1015.69 1016.98 1018.24 1019.44 1020.52
1010.63 1010.49 1010.40 1010.35 1010.34 1010.34 1010.34 1010.35 1010.35 1010.37 1010.42 1010.51 1010.65 1010.87 1011.14 1011.47 1011.81 1012.13 1012.39 1012.57 1012.62 1012.54 1012.31 1011.96 1011.52 1011.02 1010.50 1010.03 1009.65 1009.39 1009.29 1009.38 1009.66 1010.15 1010.84 1011.70 1012.74 1013.91 1015.18 1016.50 1017.84 1019.15 1020.37 1021.48
1010.25 1010.12 1010.05 1010.05 1010.11 1010.21 1010.33 1010.46 1010.59 1010.73 1010.87 1011.04 1011.25 1011.49 1011.78 1012.10 1012.43 1012.74 1013.01 1013.20 1013.28 1013.24 1013.07 1012.78 1012.39 1011.95 1011.48 1011.05 1010.69 1010.44 1010.35 1010.44 1010.72 1011.20 1011.89 1012.75 1013.78 1014.94 1016.20 1017.50 1018.82 1020.09 1021.28 1022.36
Thickness
5780 5764 5754 5759 5763 5764 5762 5756 5752 5765 5783 5779 5774 5776 5786 5793 5792 5788 5784 5782 5779 5780 5780 5777 5772 5768 5762 5755 5749 5743 5738 5734 5732 5729 5726 5724 5724 5725 5726 5726 5727 5728 5728 5728
5762 5756 5767 5772 5770 5765 5759 5751 5751 5765 5781 5777 5770 5772 5783 5787 5787 5787 5783 5780 5779 5777 5775 5773 5769 5766 5762 5756 5750 5745 5740 5736 5733 5731 5729 5726 5725 5724 5724 5725 5726 5727 5727 5728
5756 5765 5777 5770 5763 5758 5755 5750 5753 5756 5768 5771 5766 5762 5772 5781 5784 5785 5784 5782 5779 5777 5773 5770 5767 5764 5760 5755 5751 5747 5741 5738 5734 5732 5728 5725 5722 5720 5720 5721 5722 5725 5726 5727
5758 5769 5771 5765 5761 5759 5747 5764 5762 5759 5748 5740 5752 5732 5759 5768 5771 5776 5777 5777 5777 5777 5774 5771 5767 5763 5760 5757 5753 5747 5742 5737 5734 5732 5728 5725 5723 5720 5720 5721 5722 5724 5724 5725
5755 5767 5765 5760 5765 5766 5760 5771 5765 5758 5747 5737 5740 5730 5742 5759 5762 5769 5774 5775 5776 5775 5773 5770 5768 5765 5762 5758 5753 5748 5742 5738 5736 5733 5730 5727 5725 5723 5721 5720 5720 5721 5722 5724
5763 5775 5775 5772 5778 5776 5774 5762 5750 5737 5729 5719 5733 5728 5732 5749 5762 5768 5772 5774 5774 5774 5772 5769 5767 5763 5759 5757 5753 5748 5742 5738 5736 5733 5731 5728 5725 5722 5719 5718 5718 5719 5719 5721
5751 5763 5775 5780 5768 5770 5764 5737 5713 5713 5704 5710 5729 5726 5733 5762 5769 5771 5771 5771 5773 5772 5769 5765 5762 5760 5757 5755 5751 5747 5743 5738 5735 5732 5729 5728 5726 5723 5721 5720 5719 5718 5718 5719
5731 5736 5764 5773 5767 5755 5751 5739 5712 5703 5701 5709 5724 5723 5746 5768 5772 5774 5774 5773 5772 5769 5767 5765 5762 5760 5757 5754 5750 5746 5742 5738 5735 5732 5729 5728 5727 5724 5723 5721 5720 5719 5718 5719
5726 5733 5767 5777 5779 5768 5746 5737 5742 5716 5711 5707 5714 5730 5751 5767 5768 5769 5769 5769 5768 5767 5766 5764 5761 5759 5757 5754 5751 5747 5742 5738 5734 5732 5729 5727 5726 5724 5722 5721 5719 5718 5717 5717
5742 5735 5756 5772 5775 5771 5764 5745 5724 5712 5699 5699 5715 5723 5732 5756 5759 5763 5764 5764 5765 5765 5764 5762 5760 5758 5756 5753 5749 5745 5742 5738 5734 5731 5728 5727 5725 5723 5721 5719 5717 5716 5716 5715
5746 5735 5743 5754 5756 5752 5748 5741 5728 5713 5713 5700 5700 5719 5753 5758 5763 5762 5763 5765 5765 5763 5762 5760 5758 5757 5754 5751 5747 5743 5739 5736 5733 5730 5727 5725 5723 5721 5719 5718 5717 5715 5714 5713
5743 5730 5723 5739 5760 5766 5760 5746 5731 5721 5713 5707 5705 5721 5764 5763 5765 5765 5764 5765 5765 5763 5761 5759 5756 5755 5752 5748 5745 5741 5738 5735 5732 5729 5726 5723 5722 5719 5718 5716 5715 5713 5711 5710
5740 5725 5713 5721 5736 5752 5751 5745 5738 5727 5711 5701 5704 5727 5761 5761 5763 5764 5764 5763 5761 5760 5757 5755 5753 5751 5748 5745 5743 5739 5736 5734 5731 5728 5724 5721 5719 5717 5715 5714 5712 5710 5708 5707
5746 5723 5718 5714 5723 5740 5744 5742 5737 5731 5712 5707 5716 5733 5751 5756 5758 5760 5761 5761 5758 5757 5754 5752 5749 5747 5745 5742 5740 5737 5734 5732 5728 5725 5722 5719 5716 5714 5712 5710 5708 5706 5704 5702
5738 5722 5728 5733 5742 5744 5745 5743 5739 5737 5728 5722 5729 5734 5747 5752 5754 5757 5758 5757 5755 5752 5750 5748 5745 5743 5741 5739 5737 5734 5731 5728 5726 5722 5718 5716 5714 5711 5708 5706 5704 5702 5699 5698
5724 5719 5724 5726 5737 5739 5736 5738 5738 5738 5734 5734 5736 5736 5749 5750 5751 5752 5752 5751 5750 5748 5747 5745 5743 5740 5738 5736 5733 5731 5727 5725 5722 5718 5715 5713 5711 5708 5705 5702 5699 5696 5693 5691
5709 5711 5705 5705 5720 5726 5714 5726 5729 5730 5732 5732 5728 5736 5739 5740 5742 5743 5745 5746 5745 5743 5743 5741 5739 5736 5735 5733 5731 5728 5725 5722 5719 5716 5712 5710 5707 5704 5701 5698 5693 5690 5686 5684
5702 5695 5688 5692 5704 5691 5708 5728 5730 5724 5723 5727 5730 5730 5732 5733 5735 5737 5739 5740 5740 5739 5737 5736 5735 5733 5732 5730 5728 5725 5722 5718 5715 5712 5708 5706 5704 5700 5696 5692 5687 5683 5679 5676
5698 5691 5679 5675 5679 5687 5704 5718 5719 5716 5713 5722 5722 5723 5724 5726 5729 5728 5731 5732 5732 5732 5733 5732 5732 5730 5728 5725 5722 5719 5715 5712 5708 5706 5703 5701 5698 5694 5689 5684 5679 5675 5671 5667
5683 5684 5674 5668 5671 5667 5693 5712 5718 5713 5701 5717 5717 5715 5716 5717 5710 5714 5720 5721 5723 5724 5724 5725 5725 5724 5722 5719 5716 5712 5709 5705 5702 5699 5697 5694 5691 5687 5682 5677 5671 5666 5662 5657
5666 5664 5663 5662 5665 5674 5694 5703 5708 5689 5695 5710 5710 5710 5709 5706 5706 5708 5710 5711 5712 5713 5715 5715 5715 5714 5713 5712 5709 5705 5701 5698 5695 5693 5690 5686 5683 5678 5674 5668 5662 5657 5652 5647
5654 5653 5652 5651 5656 5663 5688 5693 5690 5691 5699 5701 5702 5702 5700 5699 5700 5701 5701 5700 5701 5703 5704 5705 5704 5702 5702 5702 5699 5695 5692 5690 5686 5683 5679 5675 5672 5669 5663 5657 5651 5647 5642 5637
5647 5650 5650 5654 5658 5671 5678 5682 5685 5688 5689 5691 5692 5693 5693 5692 5692 5691 5691 5691 5692 5692 5692 5693 5693 5691 5690 5690 5689 5685 5682 5679 5677 5672 5668 5664 5660 5656 5651 5646 5641 5636 5631 5626
5644 5647 5647 5650 5658 5665 5669 5673 5676 5679 5681 5683 5684 5685 5685 5684 5683 5681 5680 5680 5681 5681 5680 5681 5681 5679 5677 5677 5676 5674 5671 5668 5666 5660 5655 5651 5647 5641 5636 5631 5628 5623 5619 5614
5639 5641 5640 5644 5651 5656 5662 5664 5666 5669 5672 5673 5674 5676 5676 5675 5673 5672 5670 5669 5669 5669 5668 5669 5668 5666 5664 5663 5661 5660 5658 5656 5652 5647 5641 5637 5632 5627 5621 5615 5610 5607 5603 5601
5631 5633 5635 5638 5646 5648 5652 5656 5658 5659 5661 5663 5664 5664 5665 5665 5664 5662 5659 5658 5657 5657 5656 5656 5654 5652 5651 5650 5647 5645 5645 5643 5640 5633 5628 5623 5617 5612 5608 5603 5594 5588 5586 5582